This is the latest recevied weather packets stored in our database for station/object VU3OPX-13. If no packets are shown the sender has not sent any weather packets the latest 10 day(s).
| Time | Temp. | Humidity | Pressure | Rain* | Wind** | Luminosity | Snow |
|---|---|---|---|---|---|---|---|
| 1787945889 | 21.67° C | 92% | 1011 hPa | 0 mm | - | - | - |
| 1787944102 | 21.67° C | 92% | 1012 hPa | 0 mm | - | - | - |
| 1787944017 | 21.67° C | 92% | 1012 hPa | 0 mm | - | - | - |
| 1787942808 | 21.67° C | 92% | 1012 hPa | 0 mm | - | - | - |
| 1787941020 | 21.67° C | 92% | 1012 hPa | 0 mm | - | - | - |
| 1787939233 | 21.67° C | 92% | 1012 hPa | 0 mm | - | - | - |
| 1787937445 | 21.67° C | 91% | 1013 hPa | 0 mm | - | - | - |
| 1787935658 | 21.67° C | 91% | 1013 hPa | 0 mm | - | - | - |
| 1787933870 | 21.67° C | 90% | 1013 hPa | 0 mm | - | - | - |
| 1787932083 | 21.67° C | 90% | 1013 hPa | 0 mm | - | - | - |
| 1787930296 | 22.22° C | 88% | 1012 hPa | 0 mm | - | - | - |
| 1787928509 | 22.22° C | 88% | 1012 hPa | 0 mm | - | - | - |
| 1787926722 | 22.78° C | 87% | 1012 hPa | 0 mm | - | - | - |
| 1787924934 | 22.78° C | 87% | 1011 hPa | 0 mm | - | - | - |
| 1787923146 | 23.89° C | 84% | 1011 hPa | 0 mm | - | - | - |
| 1787921368 | 23.33° C | 84% | 1011 hPa | 0 mm | - | - | - |
| 1787919571 | 25° C | 77% | 1010 hPa | 0 mm | - | - | - |
| 1787917785 | 25° C | 77% | 1010 hPa | 0 mm | - | - | - |
| 1787914264 | 25.56° C | 73% | 1009 hPa | 0 mm | - | - | - |
| 1787912477 | 26.67° C | 70% | 1009 hPa | 0 mm | - | - | - |
| 1787910690 | 26.67° C | 70% | 1009 hPa | 0 mm | - | - | - |
| 1787908903 | 26.67° C | 69% | 1010 hPa | 0 mm | - | - | - |
| 1787907115 | 26.67° C | 69% | 1010 hPa | 0 mm | - | - | - |
| 1787905328 | 27.22° C | 68% | 1010 hPa | 0 mm | - | - | - |
| 1787903541 | 27.22° C | 68% | 1010 hPa | 0 mm | - | - | - |
* Rain latest hour (hover to see other rain measurements)
** Current wind speed in m/s (hover to see current wind gust speed)